Regional Weather Roundup
Issued by NWS Northern Indiana

Home | Current Version | Previous Version | Graphics & Text | Print | Product List | Glossary On
Versions: 1 2 3 4 5 6 7 8 9 10 11 12 13 14 15 16 17 18 19 20 21 22 23 24 25 26 27 28 29 30 31 32 33 34 35 36 37 38 39 40 41 42 43 44 45 46 47 48 49 50
000
ASUS43 KIWX 201200
RWRIWX

KIWX WEATHER ROUNDUP
NATIONAL WEATHER SERVICE NORTHERN INDIANA
800 AM EDT FRI APR 20 2018

NOTE: "FAIR" INDICATES FEW OR NO CLOUDS BELOW 12,000 FEET WITH NO
SIGNIFICANT WEATHER AND/OR OBSTRUCTIONS TO VISIBILITY.

* THESE STATIONS ARE NOT UNDER NWS QUALITY CONTROL. THEY ALSO MAY NOT
  REPORT WEATHER SUCH AS PRECIPITATION OR FOG.

INZ001>027-201300-
NORTHERN INDIANA

CITY           SKY/WX    TMP DP  RH WIND       PRES   REMARKS
GARY*          CLEAR     34  30  86 CALM      30.45F
KNOX*          FAIR      27  27 100 CALM      30.49R
SOUTH BEND     FAIR      28  26  92 CALM      30.49R
6HR MIN TEMP:  23; 6HR MAX TEMP:  31;

ELKHART*       FAIR      27  25  93 CALM      30.48R
GOSHEN         FAIR      29  26  89 CALM      30.48R
6HR MIN TEMP:  26; 6HR MAX TEMP:  32;

MONTICELLO*    FAIR      28  24  85 CALM      30.49R
6HR MIN TEMP:  25; 6HR MAX TEMP:  35;

ROCHESTER*     FAIR      32  28  86 CALM      30.50R
WARSAW*        FAIR      30  27  86 CALM      30.48R
FORT WAYNE     FAIR      33  24  69 N3        30.48R
6HR MIN TEMP:  29; 6HR MAX TEMP:  34;

PERU/GRISSOM   FAIR      30  29  98 NW5       30.48R WCI  25
6HR MIN TEMP:  26; 6HR MAX TEMP:  34;


$$
INZ028>050-201300-
CENTRAL INDIANA

CITY           SKY/WX    TMP DP  RH WIND       PRES   REMARKS
LAFAYETTE      FAIR      27  25  92 CALM      30.50R
6HR MIN TEMP:  24; 6HR MAX TEMP:  32;

KOKOMO*        FAIR      32  26  78 NW3       30.49R
6HR MIN TEMP:  28; 6HR MAX TEMP:  34;

MUNCIE*        FAIR      32  24  72 CALM      30.46R
6HR MIN TEMP:  28; 6HR MAX TEMP:  35;

INDIANAPOLIS   FAIR      35  22  58 N7        30.47R WCI  29
6HR MIN TEMP:  31; 6HR MAX TEMP:  36;


$$
MIZ043>046-050>051-056>058-064>065-071>073-077>080-201300-
SOUTHWEST LOWER MICHIGAN

CITY           SKY/WX    TMP DP  RH WIND       PRES   REMARKS
BATTLE CREEK   FAIR      32  21  64 CALM      30.47R
6HR MIN TEMP:  28; 6HR MAX TEMP:  34;

BENTON HARBOR  FAIR      28  24  85 CALM      30.49R
6HR MIN TEMP:  23; 6HR MAX TEMP:  29;

COLDWATER*     FAIR      32  24  71 CALM      30.47R
6HR MIN TEMP:  27; 6HR MAX TEMP:  34;

HILLSDALE*     FAIR      32  21  64 NW3       30.44S
HOLLAND        FAIR      33  24  69 CALM      30.49R
6HR MIN TEMP:  27; 6HR MAX TEMP:  33;

GRAND RAPIDS   FAIR      36  20  52 CALM      30.47R
6HR MIN TEMP:  32; 6HR MAX TEMP:  36;

KALAMAZOO      FAIR      32  22  66 CALM      30.48R
6HR MIN TEMP:  29; 6HR MAX TEMP:  35;

STURGIS*       FAIR      37  20  49 N5        30.47R
6HR MIN TEMP:  32; 6HR MAX TEMP:  37;

THREE RIVERS*  FAIR      31  24  73 CALM      30.48S
6HR MIN TEMP:  28; 6HR MAX TEMP:  36;


$$
OHZ001>008-015>018-024>025-201300-
NORTHWEST OHIO

CITY           SKY/WX    TMP DP  RH WIND       PRES   REMARKS
WAUSEON*       FAIR      32  23  69 NW7       30.46R WCI  26
DEFIANCE       FAIR      33  25  72 NW5       30.47R WCI  29
6HR MIN TEMP:  30; 6HR MAX TEMP:  36;

FINDLAY        FAIR      33  25  72 NW7       30.45R WCI  27
6HR MIN TEMP:  30; 6HR MAX TEMP:  36;

TOLEDO EXPRESS FAIR      35  22  58 NW5       30.46R WCI  31
6HR MIN TEMP:  29; 6HR MAX TEMP:  36;

TOLEDO METCALF FAIR      34  24  67 NW7       30.47R WCI  28
6HR MIN TEMP:  29; 6HR MAX TEMP:  34;

LIMA           FAIR      34  27  75 NW5       30.46R WCI  30
6HR MIN TEMP:  30; 6HR MAX TEMP:  35;


$$
AND FOR LAKE MICHIGAN COASTAL AND OPEN LAKE BUOY OBSERVATIONS

STATION/POSITION TEMP    WIND        PRES    VSBY  WAVE
                 AIR SEA DIR/SP/G                  HT/PER
                 (F)     (DEG/KT/KT) (MB)    (MI)  (FT/S)
CALUMET HARBOR    38     280/  1/  4 1031.7
MICHIGAN CITY     35     210/  2/  3   N/A
BURNS HARBOR      39     350/  2/  3 1032.8R
SAINT JOSEPH      35      CALM  /  1 1032.2

$$
&&




USA.gov is the U.S. government's official web portal to all federal, state and local government web resources and services.